GW3616 Weather Reports


Display with metric or nautical units.
time (UTC)temp
F
wind
direction
speed
MPH
gust
MPH
rain 1hr
in
rain 24hr
in
rain mn
in
humidity
%
barometer
mb
20260509090827 55 228 14.0 16.0 0.00 0.00 0.00 87 1005.2
20260509090324 55 235 11.0 16.0 0.00 0.00 0.00 87 1005.1
20260509085821 55 216 13.0 16.0 0.00 0.00 0.00 87 1005.2
20260509085318 55 220 6.0 14.0 0.00 0.00 0.00 87 1005.3
20260509084814 55 222 10.0 15.0 0.00 0.00 0.00 87 1005.4
20260509084312 55 239 14.0 18.0 0.00 0.00 0.00 87 1005.5
20260509083809 55 236 8.0 10.0 0.00 0.00 0.00 86 1005.8
20260509083306 55 236 7.0 16.0 0.00 0.00 0.00 86 1005.6
20260509082803 55 223 7.0 11.0 0.00 0.00 0.00 85 1005.6
20260509082259 55 223 9.0 14.0 0.00 0.00 0.00 85 1005.6
20260509081756 56 226 7.0 11.0 0.00 0.00 0.00 85 1005.7
20260509081254 55 218 11.0 13.0 0.00 0.00 0.00 85 1005.9
20260509080752 55 204 8.0 11.0 0.00 0.00 0.00 85 1005.8
20260509080249 55 228 7.0 13.0 0.00 0.00 0.00 85 1005.9
20260509075747 55 232 9.0 11.0 0.00 0.00 0.00 85 1006.0
20260509075244 55 219 10.0 13.0 0.00 0.00 0.00 85 1006.2
20260509074741 55 226 9.0 14.0 0.00 0.00 0.00 86 1006.1
20260509074239 55 237 8.0 9.0 0.00 0.00 0.00 85 1006.0
20260509073735 55 215 9.0 13.0 0.00 0.00 0.00 85 1005.9
20260509073231 55 208 6.0 11.0 0.00 0.00 0.00 85 1006.1
20260509072728 55 163 6.0 11.0 0.00 0.00 0.00 85 1005.9
20260509072225 55 216 10.0 16.0 0.00 0.00 0.00 85 1006.5
20260509071721 55 219 10.0 19.0 0.00 0.00 0.00 85 1006.3
20260509071219 55 220 11.0 15.0 0.00 0.00 0.00 84 1006.4
20260509070715 55 215 10.0 14.0 0.00 0.00 0.00 84 1006.5
20260509070212 55 222 8.0 14.0 0.00 0.00 0.00 83 1006.7
20260509065708 55 208 8.0 15.0 0.00 0.00 0.00 83 1006.7
20260509065204 55 212 12.0 16.0 0.00 0.00 0.00 83 1006.9
20260509064701 54 203 4.0 10.0 0.00 0.00 0.00 82 1006.8
20260509064159 52 145 2.0 4.0 0.00 0.00 0.00 78 1007.0
20260509063656 51 153 2.0 3.0 0.00 0.00 0.00 74 1007.2
20260509063152 51 171 4.0 5.0 0.00 0.00 0.00 70 1006.9
20260509062649 51 122 3.0 4.0 0.00 0.00 0.00 67 1007.0
20260509062146 51 144 3.0 4.0 0.00 0.00 0.00 65 1007.2
20260509061643 51 126 3.0 4.0 0.00 0.00 0.00 64 1007.2
20260509061141 52 149 4.0 6.0 0.00 0.00 0.00 62 1007.0
20260509060638 51 164 4.0 5.0 0.00 0.00 0.00 61 1007.2
20260509060134 51 166 5.0 5.0 0.00 0.00 0.00 59 1007.4
20260509055630 51 123 3.0 6.0 0.00 0.00 0.00 58 1007.5
20260509055126 51 150 4.0 5.0 0.00 0.00 0.00 58 1007.7
20260509054623 51 171 4.0 6.0 0.00 0.00 0.00 57 1007.3
20260509054120 51 127 4.0 5.0 0.00 0.00 0.00 57 1007.5
20260509053619 51 156 3.0 5.0 0.00 0.00 0.00 57 1007.7
20260509053115 51 145 4.0 6.0 0.00 0.00 0.00 56 1007.5
20260509052613 51 154 3.0 6.0 0.00 0.00 0.00 56 1007.7
20260509052111 51 148 5.0 5.0 0.00 0.00 0.00 56 1007.8
20260509051608 51 142 3.0 4.0 0.00 0.00 0.00 55 1007.4
20260509051105 51 141 3.0 6.0 0.00 0.00 0.00 54 1007.5
20260509050602 51 117 3.0 4.0 0.00 0.00 0.00 54 1007.5
20260509050058 51 138 3.0 4.0 0.00 0.00 0.00 53 1007.3
20260509045556 51 181 4.0 8.0 0.00 0.00 0.00 53 1007.8
20260509045053 51 155 6.0 6.0 0.00 0.00 0.00 52 1007.5
20260509044550 52 146 4.0 5.0 0.00 0.00 0.00 51 1007.8
20260509044047 51 138 3.0 6.0 0.00 0.00 0.00 51 1007.8
20260509043543 51 134 3.0 4.0 0.00 0.00 0.00 50 1007.7
20260509043039 51 129 3.0 4.0 0.00 0.00 0.00 50 1007.7
20260509042535 51 120 2.0 4.0 0.00 0.00 0.00 50 1007.5
20260509042031 51 101 1.0 4.0 0.00 0.00 0.00 51 1007.5
20260509041528 51 100 1.0 3.0 0.00 0.00 0.00 50 1007.8
20260509041026 49 85 1.0 1.0 0.00 0.00 0.00 52 1008.0
20260509040524 49 78 1.0 1.0 0.00 0.00 0.00 56 1008.0
20260509040021 49 77 2.0 3.0 0.00 0.00 0.00 53 1007.9
20260509035518 49 73 0.0 1.0 0.00 0.00 0.00 52 1008.0
20260509035014 49 77 1.0 1.0 0.00 0.00 0.00 53 1008.1
20260509034513 49 76 1.0 1.0 0.00 0.00 0.00 52 1008.3
20260509034009 48 76 1.0 3.0 0.00 0.00 0.00 51 1008.3
20260509033506 48 70 0.0 1.0 0.00 0.00 0.00 52 1008.4
20260509033003 48 70 1.0 1.0 0.00 0.00 0.00 54 1008.5
20260509032500 48 71 1.0 1.0 0.00 0.00 0.00 53 1008.6
20260509031952 50 73 0.0 1.0 0.00 0.00 0.00 51 1008.5
20260509031449 50 78 1.0 1.0 0.00 0.00 0.00 50 1008.5
20260509030947 51 85 1.0 1.0 0.00 0.00 0.00 47 1008.7
20260509030445 51 86 1.0 1.0 0.00 0.00 0.00 49 1008.8
20260509025942 52 90 1.0 1.0 0.00 0.00 0.00 43 1008.8
20260509025437 52 91 1.0 1.0 0.00 0.00 0.00 42 1008.7
20260509024933 51 89 1.0 1.0 0.00 0.00 0.00 43 1008.8
20260509024429 51 85 1.0 1.0 0.00 0.00 0.00 48 1008.8
20260509023926 51 84 1.0 1.0 0.00 0.00 0.00 45 1008.8
20260509023423 51 84 1.0 1.0 0.00 0.00 0.00 43 1008.8
20260509022920 50 83 1.0 1.0 0.00 0.00 0.00 44 1009.0
20260509022417 50 83 1.0 1.0 0.00 0.00 0.00 43 1009.0
20260509021914 50 83 0.0 1.0 0.00 0.00 0.00 45 1009.0
20260509021411 50 83 0.0 0.0 0.00 0.00 0.00 44 1009.0
20260509020909 51 84 0.0 0.0 0.00 0.00 0.00 47 1009.0
20260509020407 53 85 0.0 0.0 0.00 0.00 0.00 43 1009.1
20260509015903 54 94 1.0 1.0 0.00 0.00 0.00 36 1009.0
20260509015401 54 94 0.0 1.0 0.00 0.00 0.00 36 1009.1
20260509014857 54 111 2.0 3.0 0.00 0.00 0.00 36 1009.1
20260509014355 55 116 2.0 3.0 0.00 0.00 0.00 34 1008.7
20260509013851 55 127 3.0 4.0 0.00 0.00 0.00 35 1008.8
20260509013347 55 114 2.0 3.0 0.00 0.00 0.00 34 1008.7
20260509012843 55 108 1.0 3.0 0.00 0.00 0.00 34 1008.8
20260509012340 54 94 1.0 1.0 0.00 0.00 0.00 36 1008.6
20260509011838 54 93 0.0 1.0 0.00 0.00 0.00 38 1009.0
20260509011336 55 93 0.0 0.0 0.00 0.00 0.00 36 1008.9
20260509010833 56 99 1.0 1.0 0.00 0.00 0.00 34 1008.8
20260509010331 56 113 1.0 3.0 0.00 0.00 0.00 33 1008.8
20260509005827 57 105 1.0 3.0 0.00 0.00 0.00 33 1008.7
20260509005325 57 113 1.0 3.0 0.00 0.00 0.00 32 1008.8
20260509004820 57 123 2.0 3.0 0.00 0.00 0.00 32 1008.9
20260509004316 57 117 1.0 3.0 0.00 0.00 0.00 30 1008.8
20260509003814 58 119 2.0 3.0 0.00 0.00 0.00 30 1008.7
20260509003311 58 124 3.0 4.0 0.00 0.00 0.00 32 1009.0
20260509002803 58 136 2.0 3.0 0.00 0.00 0.00 31 1009.1
20260509002301 59 119 1.0 3.0 0.00 0.00 0.00 32 1008.9
20260509001758 59 159 3.0 5.0 0.00 0.00 0.00 31 1009.0
20260509001254 59 150 3.0 5.0 0.00 0.00 0.00 30 1009.0
20260509000752 60 172 5.0 5.0 0.00 0.00 0.00 29 1009.0
20260509000248 60 146 2.0 4.0 0.00 0.00 0.00 31 1009.0
20260508235746 60 164 4.0 6.0 0.00 0.00 0.00 29 1009.2
20260508235242 61 174 3.0 4.0 0.00 0.00 0.00 30 1009.2
20260508234740 61 139 1.0 3.0 0.00 0.00 0.00 27 1009.4
20260508234235 61 176 4.0 6.0 0.00 0.00 0.00 27 1009.4
20260508233735 61 186 5.0 6.0 0.00 0.00 0.00 30 1009.5
20260508233232 61 182 2.0 5.0 0.00 0.00 0.00 30 1009.5
20260508232729 61 221 8.0 9.0 0.00 0.00 0.00 28 1009.5
20260508232226 61 229 7.0 9.0 0.00 0.00 0.00 28 1009.4
20260508231724 61 228 5.0 9.0 0.00 0.00 0.00 30 1009.6
20260508231220 61 227 7.0 11.0 0.00 0.00 0.00 30 1009.8
20260508230717 61 240 7.0 9.0 0.00 0.00 0.00 30 1009.9
20260508230213 61 229 6.0 6.0 0.00 0.00 0.00 29 1009.7
20260508225712 62 200 4.0 8.0 0.00 0.00 0.00 31 1010.1
20260508225208 61 173 4.0 8.0 0.00 0.00 0.00 29 1009.9
20260508224706 60 224 7.0 9.0 0.00 0.00 0.00 29 1010.0
20260508224203 60 250 10.0 11.0 0.00 0.00 0.00 31 1009.9
20260508223700 60 236 9.0 11.0 0.00 0.00 0.00 31 1010.1
20260508223157 60 218 8.0 11.0 0.00 0.00 0.00 31 1010.0
20260508222655 61 235 9.0 10.0 0.00 0.00 0.00 32 1010.2
20260508222152 61 236 9.0 10.0 0.00 0.00 0.00 32 1010.1
20260508221648 61 279 6.0 10.0 0.00 0.00 0.00 31 1010.2
20260508221144 60 239 9.0 11.0 0.00 0.00 0.00 34 1010.2
20260508220641 60 250 9.0 13.0 0.00 0.00 0.00 37 1010.4
20260508220137 60 277 7.0 9.0 0.00 0.00 0.00 33 1010.3
20260508215634 60 277 9.0 11.0 0.00 0.00 0.00 33 1010.3
20260508215131 60 262 6.0 11.0 0.00 0.00 0.00 32 1010.3
20260508214628 60 234 6.0 10.0 0.00 0.00 0.00 32 1010.2
20260508214125 60 257 10.0 11.0 0.00 0.00 0.00 34 1010.4
20260508213622 60 255 7.0 10.0 0.00 0.00 0.00 35 1010.2
20260508213118 59 229 8.0 10.0 0.00 0.00 0.00 36 1010.4
20260508212614 59 263 5.0 6.0 0.00 0.00 0.00 37 1010.3
20260508212111 59 256 5.0 6.0 0.00 0.00 0.00 36 1010.1
20260508211606 60 254 7.0 10.0 0.00 0.00 0.00 34 1010.3
20260508211103 60 262 10.0 10.0 0.00 0.00 0.00 32 1010.5
20260508210559 60 217 2.0 11.0 0.00 0.00 0.00 30 1010.4
20260508210057 60 282 5.0 13.0 0.00 0.00 0.00 33 1010.7
20260508205554 60 231 7.0 10.0 0.00 0.00 0.00 34 1010.7
20260508205050 60 255 10.0 11.0 0.00 0.00 0.00 33 1010.7
20260508204547 59 250 9.0 14.0 0.00 0.00 0.00 34 1010.7
20260508204042 60 207 5.0 11.0 0.00 0.00 0.00 35 1010.8
20260508203539 60 241 7.0 11.0 0.00 0.00 0.00 34 1010.8
20260508203035 60 267 10.0 11.0 0.00 0.00 0.00 35 1010.8
20260508202532 59 292 10.0 14.0 0.00 0.00 0.00 34 1010.9
20260508202029 60 231 10.0 10.0 0.00 0.00 0.00 35 1011.1
20260508201526 60 280 12.0 16.0 0.00 0.00 0.00 39 1011.1
20260508201022 60 246 9.0 13.0 0.00 0.00 0.00 36 1011.0
20260508200519 60 263 11.0 14.0 0.00 0.00 0.00 37 1011.1
20260508200015 59 219 8.0 14.0 0.00 0.00 0.00 36 1011.2
20260508195512 59 276 8.0 13.0 0.00 0.00 0.00 32 1011.4
20260508195008 59 245 7.0 13.0 0.00 0.00 0.00 33 1011.4
20260508194505 59 240 7.0 10.0 0.00 0.00 0.00 32 1011.5
20260508194002 59 260 5.0 11.0 0.00 0.00 0.00 32 1011.3
20260508193459 59 240 11.0 13.0 0.00 0.00 0.00 32 1011.7
20260508192955 59 264 11.0 14.0 0.00 0.00 0.00 36 1011.7
20260508192452 59 232 9.0 13.0 0.00 0.00 0.00 41 1011.5
20260508191949 58 260 12.0 14.0 0.00 0.00 0.00 37 1011.8
20260508191446 59 265 9.0 15.0 0.00 0.00 0.00 33 1011.8
20260508190942 58 264 8.0 14.0 0.00 0.00 0.00 34 1011.6
20260508190440 58 254 9.0 13.0 0.00 0.00 0.00 37 1011.9
20260508185936 58 269 9.0 13.0 0.00 0.00 0.00 37 1011.8
20260508185434 58 269 10.0 11.0 0.00 0.00 0.00 36 1012.0
20260508184931 59 265 7.0 11.0 0.00 0.00 0.00 41 1011.5
20260508184428 59 270 9.0 10.0 0.00 0.00 0.00 36 1011.8
20260508183925 59 257 11.0 14.0 0.00 0.00 0.00 33 1012.0
20260508183421 59 249 9.0 14.0 0.00 0.00 0.00 39 1012.0
20260508182916 59 252 7.0 13.0 0.00 0.00 0.00 33 1012.0
20260508182414 58 253 11.0 14.0 0.00 0.00 0.00 35 1011.9
20260508181909 58 259 11.0 13.0 0.00 0.00 0.00 34 1012.1
20260508181406 58 288 7.0 11.0 0.00 0.00 0.00 37 1012.3
20260508180903 58 299 12.0 14.0 0.00 0.00 0.00 33 1012.3
20260508180400 58 292 6.0 11.0 0.00 0.00 0.00 40 1012.1
20260508175856 58 249 10.0 13.0 0.00 0.00 0.00 40 1012.3
20260508175353 58 272 11.0 14.0 0.00 0.00 0.00 36 1012.0
20260508174851 59 287 8.0 14.0 0.00 0.00 0.00 34 1012.3
20260508174348 59 288 7.0 10.0 0.00 0.00 0.00 35 1012.5
20260508173839 59 289 9.0 10.0 0.00 0.00 0.00 33 1012.3
20260508173337 58 293 7.0 9.0 0.00 0.00 0.00 32 1012.4
20260508172832 58 274 11.0 14.0 0.00 0.00 0.00 37 1012.6
20260508172330 59 293 5.0 8.0 0.00 0.00 0.00 32 1012.5
20260508171826 58 270 6.0 9.0 0.00 0.00 0.00 33 1012.7
20260508171322 58 246 8.0 9.0 0.00 0.00 0.00 31 1012.8
20260508170819 58 248 8.0 14.0 0.00 0.00 0.00 31 1012.9
20260508170317 59 240 6.0 8.0 0.00 0.00 0.00 41 1012.8
20260508165814 58 250 11.0 14.0 0.00 0.00 0.00 38 1012.9
20260508165311 58 291 9.0 10.0 0.00 0.00 0.00 37 1013.0
20260508164807 58 288 10.0 11.0 0.00 0.00 0.00 36 1013.4
20260508164304 58 293 8.0 15.0 0.00 0.00 0.00 38 1013.4
20260508163802 57 234 5.0 6.0 0.00 0.00 0.00 36 1013.5
20260508163259 59 253 7.0 10.0 0.00 0.00 0.00 38 1013.6
20260508162755 58 266 8.0 15.0 0.00 0.00 0.00 42 1013.5
20260508162251 58 234 8.0 13.0 0.00 0.00 0.00 37 1013.3
20260508161749 58 238 8.0 15.0 0.00 0.00 0.00 38 1013.5
20260508161246 58 214 9.0 11.0 0.00 0.00 0.00 34 1013.4
20260508160744 58 257 7.0 11.0 0.00 0.00 0.00 35 1013.4
20260508160242 58 208 6.0 9.0 0.00 0.00 0.00 35 1013.6
20260508155738 58 251 6.0 9.0 0.00 0.00 0.00 38 1013.4
20260508155235 57 134 2.0 5.0 0.00 0.00 0.00 36 1013.6
20260508154726 57 200 4.0 6.0 0.00 0.00 0.00 41 1013.2
20260508154224 57 289 5.0 8.0 0.00 0.00 0.00 38 1013.5
20260508153720 57 269 9.0 11.0 0.00 0.00 0.00 40 1013.6
20260508153217 57 269 7.0 11.0 0.00 0.00 0.00 40 1013.5
20260508152714 58 253 7.0 11.0 0.00 0.00 0.00 44 1013.6
20260508152209 57 155 2.0 6.0 0.00 0.00 0.00 43 1013.6
20260508151706 57 277 7.0 10.0 0.00 0.00 0.00 46 1013.6
20260508151203 57 214 5.0 8.0 0.00 0.00 0.00 47 1013.7
20260508150700 56 269 5.0 8.0 0.00 0.00 0.00 44 1013.4
20260508150157 56 256 6.0 9.0 0.00 0.00 0.00 50 1013.7
20260508145652 56 240 7.0 9.0 0.00 0.00 0.00 43 1013.5
20260508145149 56 239 5.0 6.0 0.00 0.00 0.00 49 1013.8
20260508144646 56 252 5.0 8.0 0.00 0.00 0.00 37 1013.7
20260508144144 55 250 6.0 9.0 0.00 0.00 0.00 48 1013.9
20260508143641 55 252 6.0 9.0 0.00 0.00 0.00 48 1013.8
20260508143138 55 248 5.0 9.0 0.00 0.00 0.00 51 1013.8
20260508142634 55 261 4.0 9.0 0.00 0.00 0.00 47 1013.7
20260508142131 55 217 5.0 8.0 0.00 0.00 0.00 54 1013.7
20260508141628 54 218 7.0 8.0 0.00 0.00 0.00 59 1013.8
20260508141126 55 244 4.0 10.0 0.00 0.00 0.00 56 1013.8
20260508140623 54 128 2.0 8.0 0.00 0.00 0.00 59 1013.7
20260508140119 54 156 3.0 5.0 0.00 0.00 0.00 62 1014.0
20260508135614 54 195 4.0 9.0 0.00 0.00 0.00 64 1013.9
20260508135111 54 228 4.0 5.0 0.00 0.00 0.00 64 1014.1
20260508134608 53 218 4.0 5.0 0.00 0.00 0.00 65 1014.0
20260508134105 52 215 3.0 4.0 0.00 0.00 0.00 70 1014.0
20260508133601 51 155 1.0 4.0 0.00 0.00 0.00 70 1014.2
20260508133058 51 212 2.0 3.0 0.00 0.00 0.00 72 1014.1
20260508132551 51 206 3.0 4.0 0.00 0.00 0.00 74 1014.1
20260508132047 50 168 2.0 4.0 0.00 0.00 0.00 76 1014.1
20260508131542 50 154 2.0 3.0 0.00 0.00 0.00 77 1014.0
20260508131039 48 217 3.0 4.0 0.00 0.00 0.00 78 1014.2
20260508130537 48 231 3.0 6.0 0.00 0.00 0.00 80 1014.1
20260508130033 48 189 3.0 5.0 0.00 0.00 0.00 81 1014.2
20260508125528 48 150 2.0 4.0 0.00 0.00 0.00 82 1014.2
20260508125027 47 115 1.0 3.0 0.00 0.00 0.00 83 1014.5
20260508124524 46 110 1.0 3.0 0.00 0.00 0.00 83 1014.4
20260508124021 45 88 1.0 3.0 0.00 0.00 0.00 83 1014.5
20260508123520 44 85 1.0 1.0 0.00 0.00 0.00 85 1014.5
20260508123016 44 71 0.0 0.0 0.00 0.00 0.00 87 1014.6
20260508122513 44 69 0.0 0.0 0.00 0.00 0.00 92 1014.4
20260508122010 42 68 0.0 0.0 0.00 0.00 0.00 94 1014.1
20260508121508 42 65 0.0 0.0 0.00 0.00 0.00 97 1014.3
20260508121006 41 65 0.0 0.0 0.00 0.00 0.00 98 1014.1
20260508120503 40 66 0.0 0.0 0.00 0.00 0.00 99 1014.1
20260508120001 38 65 0.0 0.0 0.00 0.00 0.00 98 1014.0
20260508115459 37 65 0.0 0.0 0.00 0.00 0.00 99 1014.1
20260508114955 35 66 0.0 0.0 0.00 0.00 0.00 99 1014.2
20260508114452 35 65 0.0 0.0 0.00 0.00 0.00 99 1013.8
20260508113948 34 65 0.0 1.0 0.00 0.00 0.00 99 1013.9
20260508113446 34 65 0.0 0.0 0.00 0.00 0.00 99 1014.0
20260508112943 33 64 0.0 0.0 0.00 0.00 0.00 99 1013.7
20260508112439 33 65 0.0 0.0 0.00 0.00 0.00 98 1013.9
20260508111936 33 65 0.0 0.0 0.00 0.00 0.00 98 1013.8
20260508111433 33 65 0.0 0.0 0.00 0.00 0.00 98 1013.8
20260508110930 32 65 0.0 0.0 0.00 0.00 0.00 98 1013.9
20260508110428 32 65 0.0 0.0 0.00 0.00 0.00 98 1013.7
20260508105928 32 63 0.0 0.0 0.00 0.00 0.00 98 1013.7
20260508105424 32 62 0.0 0.0 0.00 0.00 0.00 98 1013.8
20260508104922 33 62 0.0 0.0 0.00 0.00 0.00 98 1013.7
20260508104419 32 62 0.0 0.0 0.00 0.00 0.00 98 1013.6
20260508103916 32 62 0.0 0.0 0.00 0.00 0.00 98 1013.4
20260508103413 32 62 0.0 0.0 0.00 0.00 0.00 98 1013.6
20260508102910 32 62 0.0 0.0 0.00 0.00 0.00 97 1013.5
20260508102409 32 62 0.0 0.0 0.00 0.00 0.00 97 1013.8
20260508101905 32 62 0.0 0.0 0.00 0.00 0.00 97 1013.6
20260508101402 33 62 0.0 0.0 0.00 0.00 0.00 97 1013.6
20260508100900 33 62 0.0 1.0 0.00 0.00 0.00 97 1013.5
20260508100359 33 62 0.0 0.0 0.00 0.00 0.00 97 1013.6
20260508095853 32 62 0.0 0.0 0.00 0.00 0.00 97 1013.6
20260508095352 33 62 0.0 0.0 0.00 0.00 0.00 97 1013.7
20260508094848 32 62 0.0 0.0 0.00 0.00 0.00 97 1013.7
20260508094345 33 62 0.0 0.0 0.00 0.00 0.00 96 1013.8
20260508093842 33 61 0.0 0.0 0.00 0.00 0.00 96 1013.7
20260508093340 33 55 0.0 0.0 0.00 0.00 0.00 96 1013.7
20260508092837 33 55 0.0 0.0 0.00 0.00 0.00 96 1013.8
20260508092335 33 55 0.0 0.0 0.00 0.00 0.00 96 1013.9
20260508091833 33 55 0.0 0.0 0.00 0.00 0.00 95 1014.1
20260508091329 33 55 0.0 0.0 0.00 0.00 0.00 95 1014.0